Location: Alafon
(8.4500°N, 4.2333°E)
Time: 22:46:39
(UTC+00:00)

Explorer 7 - Pass Details

Date: 02 August 2021
Orbit: 484 x 676 km, 50.3° (Epoch: 18 September)

Event Time Altitude Azimuth Distance (km) Brightness Sun altitude
Rises 13:48:38 0° 290° (WNW) 2,927 11.0 59.6°
Reaches altitude 10° 13:51:57 10° 265° (W) 2,052 10.4 58.8°
Maximum altitude 13:54:26 14° 234° (SW) 1,808 9.9 58.2°
Drops below altitude 10° 13:56:58 10° 202° (SSW) 2,087 9.9 57.7°
Sets 14:00:25 0° 177° (S) 3,013 10.5 56.9°
